This is the latest recevied weather packets stored in our database for station/object K1ZK-13. If no packets are shown the sender has not sent any weather packets the latest 10 day(s).
| Time | Temp. | Humidity | Pressure | Rain* | Wind** | Luminosity | Snow |
|---|---|---|---|---|---|---|---|
| 1778170438 | 12.78° C | 45% | 1009.2 hPa | 0 mm | - | 707 W/m² | - |
| 1778170135 | 12.22° C | 42% | 1009.1 hPa | 0 mm | - | 696 W/m² | - |
| 1778169830 | 12.78° C | 48% | 1009.3 hPa | 0 mm | - | 680 W/m² | - |
| 1778169527 | 12.22° C | 49% | 1009.2 hPa | 0 mm | - | 677 W/m² | - |
| 1778169223 | 11.67° C | 46% | 1009.3 hPa | 0 mm | - | 672 W/m² | - |
| 1778168920 | 11.67° C | 46% | 1009.3 hPa | 0 mm | - | 670 W/m² | - |
| 1778168617 | 11.11° C | 46% | 1009.4 hPa | 0 mm | - | 664 W/m² | - |
| 1778168314 | 11.11° C | 45% | 1009.6 hPa | 0 mm | - | 659 W/m² | - |
| 1778168010 | 11.67° C | 44% | 1009.5 hPa | 0 mm | - | 652 W/m² | - |
| 1778167707 | 11.67° C | 48% | 1009.3 hPa | 0 mm | - | 644 W/m² | - |
| 1778167403 | 11.11° C | 47% | 1009.7 hPa | 0 mm | - | 638 W/m² | - |
| 1778167099 | 10.56° C | 49% | 1009.7 hPa | 0 mm | - | 633 W/m² | - |
| 1778166796 | 11.11° C | 49% | 1009.4 hPa | 0 mm | - | 627 W/m² | - |
| 1778166493 | 11.11° C | 50% | 1009.7 hPa | 0 mm | - | 620 W/m² | - |
| 1778166189 | 11.11° C | 49% | 1009.6 hPa | 0 mm | - | 613 W/m² | - |
| 1778165885 | 11.11° C | 50% | 1009.8 hPa | 0 mm | - | 605 W/m² | - |
| 1778165582 | 10.56° C | 50% | 1009.7 hPa | 0 mm | - | 596 W/m² | - |
| 1778165279 | 11.11° C | 50% | 1009.8 hPa | 0 mm | - | 589 W/m² | - |
| 1778164976 | 11.11° C | 52% | 1009.7 hPa | 0 mm | - | 580 W/m² | - |
| 1778164673 | 10.56° C | 53% | 1009.7 hPa | 0 mm | - | 571 W/m² | - |
| 1778164370 | 10° C | 57% | 1009.9 hPa | 0 mm | - | 562 W/m² | - |
| 1778164066 | 10.56° C | 56% | 1009.9 hPa | 0 mm | - | 553 W/m² | - |
| 1778163763 | 10° C | 54% | 1010 hPa | 0 mm | - | 544 W/m² | - |
| 1778163459 | 10° C | 57% | 1009.8 hPa | 0 mm | - | 535 W/m² | - |
| 1778163157 | 9.44° C | 56% | 1009.9 hPa | 0 mm | - | 526 W/m² | - |
* Rain latest hour (hover to see other rain measurements)
** Current wind speed in m/s (hover to see current wind gust speed)